"Pseudo-MPEC" for X84323

Created 2024 Nov 20 15:31:06 UT using Find_Orb

Click here for an explanation of pseudo-MPECs

 
 Astrometry: 
     X84323 * C2024 11 01.63439902 11 31.41 +18 28 40.3    ~B2HV 21.1 RVNEOCPD29
     X84323   C2024 11 01.64854002 11 32.13 +18 28 29.9    ~B2HV 21.2 RVNEOCPD29
     X84323   C2024 11 01.66268202 11 33.06 +18 28 17.9    ~B2HV 20.5 RVNEOCPD29

Station data:
(D29) Purple Mountain Observatory, XuYi Station  (N32.734363 E118.463900)
   China.  Observers H. B. Zhao, B. Li, G. Zhaori, R. Q. Hong, L. F. Hu.
   Measurers H. B. Zhao, B. Li. H. Lu, G. Zhaori. 1.04-m f/1.8 Schmidt + CCD.

Orbital elements:  X84323
   Perihelion 2024 Dec 9.15572 +/- 42.5 TT =  3:44:14 (JD 2460653.65572)
Epoch 2024 Nov  2.0 TT = JDT 2460616.5   Earth MOID: 0.1667   Ma: 0.0995
M 348.09107375 +/- 17               (J2000 ecliptic)             AutoNEOCP
n   0.32051391 +/- 0.268            Peri.  203.16445 +/- 60
a   2.11464819 +/- 1.18             Node   230.52259 +/- 51
e   0.4563931 +/- 0.248             Incl.    4.52862 +/- 2.5
P   3.07509                H 23.74  G  0.15   U 11.9  SR
q 1.14953732 +/- 0.277    Q 3.07975906 +/- 60.8
From 3 observations 2024 Nov. 1 (40.7 min); mean residual 0".56
Residuals in arcseconds: 
241101 D29  .50+  .25-    241101 D29  1.0-  .50+    241101 D29  .50+  .25-    

Ephemerides (geocentric):
Date (UTC) HH   RA             Dec           delta  r     elong  mag " sig PA
---- --------  ------------   ------------  ------ ------ -----  --- --------
2024 11 20 16  02 44 06.602   +13 02 07.49  .18495 1.1668 163.9 21.2  56d  78
2024 11 20 17  02 44 12.273   +13 01 18.39  .18490 1.1667 163.9 21.2  56d  78
2024 11 20 18  02 44 17.951   +13 00 29.29  .18485 1.1666 163.9 21.2  56d  78
2024 11 20 19  02 44 23.635   +12 59 40.18  .18480 1.1665 163.8 21.2  56d  78
2024 11 20 20  02 44 29.325   +12 58 51.06  .18475 1.1665 163.8 21.2  56d  78
2024 11 20 21  02 44 35.020   +12 58 01.94  .18470 1.1664 163.8 21.2  56d  78
2024 11 20 22  02 44 40.722   +12 57 12.81  .18465 1.1663 163.8 21.2  56d  78
2024 11 20 23  02 44 46.431   +12 56 23.68  .18460 1.1662 163.7 21.2  56d  79
2024 11 21 00  02 44 52.145   +12 55 34.55  .18456 1.1662 163.7 21.2  56d  79
2024 11 21 01  02 44 57.865   +12 54 45.41  .18451 1.1661 163.7 21.2  56d  79
2024 11 21 02  02 45 03.591   +12 53 56.26  .18446 1.1660 163.6 21.2  56d  79
2024 11 21 03  02 45 09.324   +12 53 07.11  .18441 1.1659 163.6 21.2  56d  79
2024 11 21 04  02 45 15.062   +12 52 17.95  .18437 1.1659 163.6 21.2  56d  79
2024 11 21 05  02 45 20.807   +12 51 28.80  .18432 1.1658 163.6 21.2  56d  79
2024 11 21 06  02 45 26.557   +12 50 39.63  .18427 1.1657 163.5 21.2  56d  79
2024 11 21 07  02 45 32.314   +12 49 50.47  .18422 1.1656 163.5 21.2  56d  79
2024 11 21 08  02 45 38.077   +12 49 01.30  .18418 1.1656 163.5 21.2  56d  79
2024 11 21 09  02 45 43.846   +12 48 12.12  .18413 1.1655 163.5 21.2  56d  79
2024 11 21 10  02 45 49.621   +12 47 22.95  .18408 1.1654 163.4 21.2  56d  79
2024 11 21 11  02 45 55.401   +12 46 33.77  .18404 1.1653 163.4 21.2  56d  79
2024 11 21 12  02 46 01.188   +12 45 44.58  .18399 1.1653 163.4 21.2  56d  79
2024 11 21 13  02 46 06.981   +12 44 55.40  .18395 1.1652 163.4 21.2  56d  79
2024 11 21 14  02 46 12.781   +12 44 06.21  .18390 1.1651 163.3 21.2  56d  79
2024 11 21 15  02 46 18.586   +12 43 17.02  .18386 1.1651 163.3 21.2  56d  79
2024 11 21 16  02 46 24.397   +12 42 27.83  .18381 1.1650 163.3 21.2  56d  79
2024 11 21 17  02 46 30.214   +12 41 38.63  .18377 1.1649 163.2 21.2  56d  79
2024 11 21 18  02 46 36.037   +12 40 49.44  .18372 1.1648 163.2 21.2  56d  79
2024 11 21 19  02 46 41.867   +12 40 00.24  .18368 1.1648 163.2 21.2  56d  79
2024 11 21 20  02 46 47.702   +12 39 11.04  .18363 1.1647 163.2 21.2  56d  79
2024 11 21 21  02 46 53.543   +12 38 21.84  .18359 1.1646 163.1 21.2  56d  79
2024 11 21 22  02 46 59.391   +12 37 32.64  .18354 1.1645 163.1 21.2  56d  79
2024 11 21 23  02 47 05.244   +12 36 43.43  .18350 1.1645 163.1 21.2  56d  79
2024 11 22 00  02 47 11.103   +12 35 54.23  .18346 1.1644 163.1 21.2  56d  79
2024 11 22 01  02 47 16.969   +12 35 05.03  .18341 1.1643 163.0 21.2  56d  79
2024 11 22 02  02 47 22.840   +12 34 15.82  .18337 1.1643 163.0 21.2  56d  79
2024 11 22 03  02 47 28.717   +12 33 26.62  .18332 1.1642 163.0 21.2  56d  79
2024 11 22 04  02 47 34.601   +12 32 37.41  .18328 1.1641 162.9 21.2  56d  79
2024 11 22 05  02 47 40.490   +12 31 48.21  .18324 1.1641 162.9 21.2  56d  79
2024 11 22 06  02 47 46.386   +12 30 59.00  .18320 1.1640 162.9 21.2  56d  79
2024 11 22 07  02 47 52.287   +12 30 09.80  .18315 1.1639 162.9 21.2  56d  79
2024 11 22 08  02 47 58.194   +12 29 20.60  .18311 1.1638 162.8 21.2  56d  79
2024 11 22 09  02 48 04.108   +12 28 31.40  .18307 1.1638 162.8 21.2  56d  79
2024 11 22 10  02 48 10.027   +12 27 42.20  .18303 1.1637 162.8 21.2  56d  79
2024 11 22 11  02 48 15.952   +12 26 53.00  .18299 1.1636 162.8 21.2  56d  79
2024 11 22 12  02 48 21.884   +12 26 03.80  .18294 1.1636 162.7 21.2  56d  79
2024 11 22 13  02 48 27.821   +12 25 14.60  .18290 1.1635 162.7 21.2  56d  79
2024 11 22 14  02 48 33.764   +12 24 25.41  .18286 1.1634 162.7 21.2  56d  79
2024 11 22 15  02 48 39.714   +12 23 36.21  .18282 1.1634 162.7 21.2  56d  79